[[{"header":{"parameterUnit":"m.s-1","parameterCategory":1,"la1":30.2992,"la2":30.254,"lo1":-89.0895,"lo2":-89.0443,"dy":0.0025,"dx":0.0025,"nx":19,"ny":19,"refTime":"2026-03-09T03:00:00:Z","depth":0,"parameterNumber":2,"parameterNumberName":"U-component_of_WINDS"},"data":[0,0,0,1.099,1.0992,1.111,1.1111,1.1252,1.1253,0,0,0,0,0,0,0,0,0,0,0,1.0949,1.095,1.0989,1.0992,1.111,1.1111,1.1252,1.1253,0,0,0,0,0,0,0,0,0,0,0,1.0949,1.0949,1.095,1.0993,1.111,1.1111,1.1251,1.1166,0,0,0,0,0,0,0,0,0,0,1.1053,1.1009,1.0949,1.095,1.0993,1.111,1.1111,1.1162,1.1171,1.1194,0,1.1213,0,1.1235,1.1262,1.1262,0,0,0,1.0997,1.1002,1.1039,1.0951,1.0994,1.111,1.1058,1.1167,1.1178,1.1206,1.1215,1.1221,1.1238,1.1263,1.1263,1.1382,1.1382,0,0,1.099,1.0967,1.1031,1.1045,1.1027,1.1054,1.1062,1.1174,1.1182,1.1216,1.1224,1.124,1.1264,1.1265,1.1382,1.1382,0,0,0,1.0968,1.0962,1.0997,1.1039,1.1061,1.1058,1.1066,1.1177,1.119,1.1226,1.1242,1.1264,1.1266,1.1381,1.1382,1.1377,0,0,0,1.0965,1.095,1.0994,1.0981,1.1059,1.1121,1.1067,1.1182,1.1196,1.1241,1.1264,1.1267,1.1381,1.1381,1.1376,1.1379,0,0,0,1.0943,1.0947,1.0962,1.0979,1.1029,1.1119,1.1139,1.1186,1.1205,1.1262,1.1268,1.1381,1.1381,1.1376,1.1378,1.1403,0,0,0,1.0913,1.0957,1.0962,1.1016,1.1028,1.1116,1.1139,1.1205,1.1253,1.1265,1.1381,1.1382,1.1376,1.1378,1.1403,1.1421,1.1426,0,0,1.0955,1.0961,1.0995,1.1003,1.1083,1.1099,1.1179,1.1246,1.1272,1.1343,1.1347,1.1377,1.1378,1.1403,1.1464,1.1468,0,0,0,1.1,1.1024,1.105,1.1096,1.1147,1.1191,1.1248,1.1272,1.1334,1.1304,1.1393,1.1395,1.1411,1.142,1.1424,1.1439,1.1385,1.1385,1.1385,1.1026,1.1058,1.1116,1.1161,1.1204,1.1261,1.1299,1.1342,1.1361,1.1381,1.1403,1.1436,1.1446,1.1449,1.1464,1.1415,1.1415,1.1415,1.1415,1.1091,1.1129,1.1153,1.1218,1.125,1.1305,1.1361,1.1372,1.1427,1.1422,1.1438,1.143,1.1453,1.1468,1.1415,1.1415,1.1415,1.1415,1.1415,1.1112,1.1136,1.1165,1.1233,1.1282,1.1326,1.1377,1.1405,1.1431,1.1446,1.1472,1.1472,1.1476,1.1457,1.1457,1.1457,1.1457,1.1457,1.1457,1.1122,1.1155,1.1195,1.1253,1.1286,1.1332,1.1389,1.1421,1.1464,1.148,1.148,1.1497,1.1449,1.1437,1.1459,1.1459,1.1458,1.1458,1.1458,1.1176,1.1168,1.1231,1.1263,1.1333,1.1379,1.1414,1.1477,1.1508,1.1532,1.1545,1.1505,1.1513,1.1511,1.1501,1.1538,1.1538,1.1538,1.1538,1.1194,1.12,1.1271,1.132,1.1372,1.141,1.1478,1.1523,1.1567,1.1588,1.1586,1.1575,1.1571,1.1581,1.1577,1.1568,1.1622,1.1623,1.1623,1.1229,1.1242,1.1295,1.1339,1.1396,1.1443,1.1509,1.1564,1.1613,1.1627,1.1605,1.1601,1.1583,1.1576,1.1589,1.1582,1.1567,0,0]},{"header":{"parameterUnit":"m.s-1","parameterCategory":1,"la1":30.2992,"la2":30.254,"lo1":-89.0895,"lo2":-89.0443,"dy":0.0025,"dx":0.0025,"nx":19,"ny":19,"refTime":"2026-03-09T03:00:00:Z","depth":0,"parameterNumber":3,"parameterNumberName":"V-component_of_WINDS"},"data":[0,0,0,0.8985,0.8984,0.8944,0.8944,0.8891,0.8891,0,0,0,0,0,0,0,0,0,0,0,0.8999,0.8999,0.8985,0.8984,0.8944,0.8944,0.8891,0.8891,0,0,0,0,0,0,0,0,0,0,0,0.8999,0.8999,0.8999,0.8984,0.8944,0.8944,0.8891,0.8921,0,0,0,0,0,0,0,0,0,0,0.896,0.8977,0.8999,0.8999,0.8984,0.8944,0.8944,0.8923,0.892,0.891,0,0.8905,0,0.8897,0.8888,0.8887,0,0,0,0.8981,0.898,0.8967,0.8999,0.8983,0.8944,0.8961,0.8921,0.8917,0.8905,0.8904,0.8902,0.8896,0.8887,0.8887,0.8842,0.8842,0,0,0.8984,0.8993,0.8969,0.8964,0.8974,0.8963,0.896,0.8919,0.8917,0.8904,0.89,0.8895,0.8887,0.8886,0.8842,0.8842,0,0,0,0.8992,0.8995,0.8983,0.8967,0.896,0.8962,0.8959,0.8918,0.8914,0.89,0.8895,0.8887,0.8886,0.8842,0.8842,0.8846,0,0,0,0.8993,0.8999,0.8984,0.8989,0.8961,0.8939,0.896,0.8917,0.8912,0.8895,0.8887,0.8885,0.8843,0.8842,0.8847,0.8847,0,0,0,0.9001,0.9,0.8995,0.899,0.8973,0.894,0.8933,0.8915,0.8909,0.8887,0.8885,0.8843,0.8842,0.8847,0.8847,0.8836,0,0,0,0.9012,0.9001,0.8996,0.8981,0.8973,0.8944,0.8933,0.891,0.8892,0.8886,0.8843,0.8842,0.8847,0.8847,0.8836,0.8828,0.8827,0,0,0.9003,0.9,0.899,0.8985,0.8958,0.8949,0.8921,0.8896,0.8885,0.8856,0.8855,0.8846,0.8847,0.8836,0.8813,0.8811,0,0,0,0.8991,0.8984,0.8975,0.8959,0.8939,0.892,0.8898,0.8887,0.8863,0.8873,0.884,0.884,0.8833,0.8828,0.8827,0.8819,0.8841,0.8841,0.8841,0.8993,0.8978,0.896,0.894,0.8923,0.8898,0.8882,0.8863,0.8855,0.8846,0.8838,0.8826,0.8821,0.882,0.8812,0.8833,0.8833,0.8833,0.8833,0.8978,0.8965,0.895,0.8927,0.891,0.8889,0.8862,0.8855,0.8831,0.8832,0.8825,0.8827,0.8819,0.8811,0.8833,0.8833,0.8833,0.8833,0.8833,0.8978,0.8969,0.8956,0.8928,0.8907,0.8885,0.8861,0.8846,0.8832,0.8825,0.8813,0.8812,0.8809,0.882,0.882,0.882,0.882,0.882,0.882,0.8982,0.8968,0.8951,0.8926,0.8911,0.8889,0.886,0.8844,0.8821,0.8812,0.8812,0.8801,0.8821,0.8826,0.8819,0.8819,0.8819,0.8819,0.882,0.8972,0.8971,0.8946,0.8931,0.8897,0.8875,0.8855,0.8822,0.8806,0.8793,0.8783,0.8801,0.8797,0.8797,0.8801,0.8788,0.8788,0.8788,0.8788,0.8972,0.8967,0.8936,0.8912,0.8886,0.8864,0.8831,0.8805,0.8778,0.8766,0.8765,0.8769,0.8771,0.8765,0.8767,0.877,0.8749,0.8749,0.8749,0.8963,0.8955,0.8933,0.8908,0.8878,0.8852,0.8819,0.8788,0.8757,0.8747,0.8756,0.8757,0.8763,0.8766,0.8758,0.8761,0.8767,0,0]}]]